• In Uzbekistan
  • List of Countries
  • For 7 days
  • Water Temperature
  • Satellite Maps
  • Weather Map
  • Weather Widgets
  • user-avatar
    Login

    Hourly Weather Caconde

    Today, 19 February, Monday

    Time Temperature Precipitation Wind Pressure Humidity
    00:00 +19°C° 0 mm 2 mps 690 mmHg 93%
    01:00 +19°C° 0 mm 2 mps 690 mmHg 92%
    02:00 +19°C° 0 mm 2 mps 690 mmHg 92%
    03:00 +20°C° 0 mm 1 mps 690 mmHg 92%
    04:00 +20°C° 0.2 mm 1 mps 690 mmHg 93%
    05:00 +20°C° 0.2 mm 1 mps 690 mmHg 94%
    06:00 +20°C° 0.2 mm 1 mps 690 mmHg 95%
    07:00 +19°C° 0.8 mm 2 mps 690 mmHg 94%
    08:00 +20°C° 0.8 mm 2 mps 690 mmHg 94%
    09:00 +21°C° 0.8 mm 2 mps 691 mmHg 93%
    10:00 +23°C° 0.3 mm 2 mps 691 mmHg 88%
    11:00 +25°C° 0.3 mm 2 mps 691 mmHg 83%
    12:00 +26°C° 0.3 mm 2 mps 691 mmHg 79%
    13:00 +26°C° 0.7 mm 2 mps 690 mmHg 80%
    14:00 +26°C° 0.7 mm 2 mps 690 mmHg 81%
    15:00 +26°C° 0.7 mm 2 mps 689 mmHg 82%
    16:00 +25°C° 1.3 mm 1 mps 689 mmHg 86%
    17:00 +25°C° 1.3 mm 1 mps 689 mmHg 90%
    18:00 +22°C° 1.3 mm 0 mps 689 mmHg 93%
    19:00 +21°C° 0.4 mm 0 mps 689 mmHg 94%
    20:00 +23°C° 0.4 mm 1 mps 689 mmHg 94%
    21:00 +22°C° 0.4 mm 1 mps 690 mmHg 94%
    22:00 +22°C° 0.5 mm 1 mps 690 mmHg 94%
    23:00 +22°C° 0.5 mm 1 mps 690 mmHg 94%

    Tomorrow, 20 February, Tuesday

    Time Temperature Precipitation Wind Pressure Humidity
    00:00 +21°C° 0.5 mm 1 mps 690 mmHg 94%
    01:00 +21°C° 0 mm 1 mps 690 mmHg 95%
    02:00 +21°C° 0 mm 1 mps 689 mmHg 95%
    03:00 +21°C° 0 mm 1 mps 689 mmHg 95%
    04:00 +20°C° 0 mm 1 mps 689 mmHg 96%
    05:00 +20°C° 0 mm 1 mps 689 mmHg 96%
    06:00 +20°C° 0 mm 1 mps 689 mmHg 96%
    07:00 +22°C° 0 mm 1 mps 689 mmHg 91%
    08:00 +23°C° 0 mm 1 mps 690 mmHg 87%
    09:00 +25°C° 0 mm 1 mps 691 mmHg 83%
    10:00 +26°C° 0.2 mm 2 mps 691 mmHg 78%
    11:00 +27°C° 0.2 mm 2 mps 690 mmHg 74%
    12:00 +28°C° 0.2 mm 2 mps 690 mmHg 70%
    13:00 +29°C° 0.4 mm 2 mps 690 mmHg 70%
    14:00 +29°C° 0.4 mm 2 mps 689 mmHg 70%
    15:00 +29°C° 0.4 mm 2 mps 688 mmHg 69%
    16:00 +28°C° 0.4 mm 2 mps 688 mmHg 75%
    17:00 +27°C° 0.4 mm 1 mps 688 mmHg 81%
    18:00 +26°C° 0.4 mm 1 mps 688 mmHg 87%
    19:00 +25°C° 0.4 mm 1 mps 688 mmHg 89%
    20:00 +24°C° 0.4 mm 1 mps 689 mmHg 91%
    21:00 +23°C° 0.4 mm 1 mps 689 mmHg 93%
    22:00 +20°C° 0.1 mm 0 mps 689 mmHg 93%
    23:00 +20°C° 0.1 mm 0 mps 689 mmHg 93%

    Day after tomorrow, 21 February, Wednesday

    Time Temperature Precipitation Wind Pressure Humidity
    00:00 +20°C° 0.1 mm 0 mps 689 mmHg 93%
    01:00 +20°C° 0.1 mm 0 mps 689 mmHg 94%
    02:00 +20°C° 0.1 mm 0 mps 688 mmHg 94%
    03:00 +21°C° 0.1 mm 1 mps 688 mmHg 94%
    04:00 +21°C° 0.2 mm 1 mps 688 mmHg 94%
    05:00 +19°C° 0.2 mm 0 mps 688 mmHg 94%
    06:00 +19°C° 0.2 mm 0 mps 689 mmHg 94%
    07:00 +23°C° 0.2 mm 1 mps 689 mmHg 90%
    08:00 +24°C° 0.2 mm 1 mps 690 mmHg 85%
    09:00 +26°C° 0.2 mm 1 mps 690 mmHg 81%
    10:00 +27°C° 0.4 mm 1 mps 690 mmHg 77%
    11:00 +28°C° 0.4 mm 2 mps 690 mmHg 73%
    12:00 +29°C° 0.4 mm 2 mps 690 mmHg 69%
    13:00 +29°C° 0.6 mm 2 mps 689 mmHg 72%
    14:00 +28°C° 0.6 mm 3 mps 688 mmHg 74%
    15:00 +28°C° 0.6 mm 3 mps 688 mmHg 77%
    16:00 +27°C° 0.8 mm 2 mps 688 mmHg 82%
    17:00 +26°C° 0.8 mm 2 mps 687 mmHg 86%
    18:00 +25°C° 0.8 mm 1 mps 687 mmHg 91%
    19:00 +24°C° 0.4 mm 1 mps 688 mmHg 92%
    20:00 +24°C° 0.4 mm 1 mps 688 mmHg 93%
    21:00 +23°C° 0.4 mm 1 mps 688 mmHg 95%
    22:00 +23°C° 0.2 mm 1 mps 688 mmHg 95%
    23:00 +22°C° 0.2 mm 1 mps 688 mmHg 95%

    22 February, Thursday

    Time Temperature Precipitation Wind Pressure Humidity
    00:00 +22°C° 0.2 mm 1 mps 688 mmHg 95%
    01:00 +22°C° 0.8 mm 1 mps 688 mmHg 95%
    02:00 +22°C° 0.8 mm 1 mps 687 mmHg 96%
    03:00 +21°C° 0.8 mm 1 mps 687 mmHg 96%
    04:00 +21°C° 0.1 mm 1 mps 687 mmHg 96%
    05:00 +21°C° 0.1 mm 1 mps 687 mmHg 96%
    06:00 +21°C° 0.1 mm 1 mps 688 mmHg 97%
    07:00 +22°C° 0 mm 1 mps 688 mmHg 95%
    08:00 +23°C° 0 mm 1 mps 689 mmHg 93%
    09:00 +24°C° 0 mm 1 mps 689 mmHg 91%
    10:00 +25°C° 0.2 mm 1 mps 689 mmHg 86%
    11:00 +26°C° 0.2 mm 1 mps 689 mmHg 82%
    12:00 +27°C° 0.2 mm 1 mps 689 mmHg 77%
    13:00 +28°C° 0.5 mm 2 mps 688 mmHg 76%
    14:00 +28°C° 0.5 mm 2 mps 688 mmHg 74%
    15:00 +29°C° 0.5 mm 2 mps 687 mmHg 73%
    16:00 +28°C° 0.7 mm 1 mps 687 mmHg 78%
    17:00 +27°C° 0.7 mm 1 mps 687 mmHg 83%
    18:00 +26°C° 0.7 mm 1 mps 687 mmHg 88%
    19:00 +25°C° 0.6 mm 1 mps 688 mmHg 90%
    20:00 +22°C° 0.6 mm 0 mps 688 mmHg 92%
    21:00 +20°C° 0.6 mm 0 mps 688 mmHg 94%
    22:00 +22°C° 0.2 mm 1 mps 688 mmHg 94%
    23:00 +22°C° 0.2 mm 1 mps 688 mmHg 95%

    23 February, Friday

    Time Temperature Precipitation Wind Pressure Humidity
    00:00 +22°C° 0.2 mm 1 mps 689 mmHg 95%
    01:00 +21°C° 0.1 mm 1 mps 688 mmHg 96%
    02:00 +21°C° 0.1 mm 1 mps 688 mmHg 96%
    03:00 +21°C° 0.1 mm 1 mps 688 mmHg 96%
    04:00 +21°C° 0 mm 1 mps 688 mmHg 96%
    05:00 +20°C° 0 mm 2 mps 688 mmHg 97%
    06:00 +19°C° 0 mm 2 mps 689 mmHg 97%
    07:00 +21°C° 0 mm 2 mps 689 mmHg 94%
    08:00 +23°C° 0 mm 2 mps 690 mmHg 92%
    09:00 +24°C° 0 mm 2 mps 690 mmHg 89%
    10:00 +25°C° 0.7 mm 2 mps 690 mmHg 85%
    11:00 +26°C° 0.7 mm 2 mps 690 mmHg 80%
    12:00 +28°C° 0.7 mm 2 mps 690 mmHg 76%
    13:00 +28°C° 1.2 mm 2 mps 689 mmHg 77%
    14:00 +27°C° 1.2 mm 1 mps 689 mmHg 79%
    15:00 +27°C° 1.2 mm 1 mps 688 mmHg 80%
    16:00 +26°C° 1.6 mm 1 mps 688 mmHg 84%
    17:00 +26°C° 1.6 mm 1 mps 689 mmHg 87%
    18:00 +23°C° 1.6 mm 0 mps 689 mmHg 91%
    19:00 +24°C° 0.9 mm 1 mps 689 mmHg 92%
    20:00 +23°C° 0.9 mm 1 mps 689 mmHg 93%
    21:00 +22°C° 0.9 mm 1 mps 689 mmHg 93%
    22:00 +21°C° 0.2 mm 2 mps 689 mmHg 94%
    23:00 +21°C° 0.2 mm 2 mps 689 mmHg 95%

    24 February, Saturday

    Time Temperature Precipitation Wind Pressure Humidity
    00:00 +20°C° 0.2 mm 2 mps 690 mmHg 96%
    01:00 +20°C° 0 mm 2 mps 689 mmHg 96%
    02:00 +20°C° 0 mm 2 mps 689 mmHg 96%
    03:00 +20°C° 0 mm 2 mps 689 mmHg 96%
    04:00 +20°C° 0 mm 2 mps 689 mmHg 96%
    05:00 +19°C° 0 mm 2 mps 689 mmHg 96%
    06:00 +19°C° 0 mm 2 mps 689 mmHg 96%
    07:00 +20°C° 0 mm 3 mps 690 mmHg 92%
    08:00 +21°C° 0 mm 3 mps 690 mmHg 89%
    09:00 +22°C° 0 mm 3 mps 690 mmHg 85%
    10:00 +24°C° 0.1 mm 3 mps 690 mmHg 83%
    11:00 +25°C° 0.1 mm 3 mps 690 mmHg 81%
    12:00 +26°C° 0.1 mm 3 mps 690 mmHg 79%
    13:00 +26°C° 0.4 mm 3 mps 689 mmHg 78%
    14:00 +27°C° 0.4 mm 3 mps 689 mmHg 77%
    15:00 +27°C° 0.4 mm 2 mps 688 mmHg 76%
    16:00 +26°C° 1 mm 2 mps 688 mmHg 82%
    17:00 +25°C° 1 mm 2 mps 688 mmHg 87%
    18:00 +24°C° 1 mm 1 mps 688 mmHg 92%
    19:00 +24°C° 0.6 mm 2 mps 688 mmHg 93%
    20:00 +23°C° 0.6 mm 2 mps 689 mmHg 94%
    21:00 +21°C° 0.6 mm 2 mps 689 mmHg 94%
    22:00 +21°C° 0.1 mm 2 mps 689 mmHg 95%
    23:00 +21°C° 0.1 mm 3 mps 689 mmHg 95%
    Show more